SCOUT X-4 DEB, 2986

Orbit data source: Space-Track

SCOUT X-4 DEB, 2986 is space debris in LEO originally from a launch on Thu, 04 Jun 1964 UTC launched from the Air Force Western Test Range (AFWTR). Debris objects in space refer to the collection of defunct objects orbiting the Earth. Examples of debris include non-operational satellites, rocket bodies, and fragments generated from explosions, collisions, or faulty payload assembly.

Loading next visibility...
SCOUT X-4 DEB details
Identifier
2986, 1964-026E
Orbit
LEO
Last TLE update18 hours ago
Origin
Flag of USUSN NAVAIR (US)
ManufacturerUnknown
MissionSpacecraft
Bus & MotorUnknown
MassUnknown
Launch date (UTC)
1964-06-04 (61 years ago)
Launch vehicleUnknown
Launch site
Air Force Western Test Range (AFWTR)
Object type
Payload
Rocket body
Debris
Shape & HBRUnknown
Radar Cross SectionSmall (<0.1 m²)

Expand to show TLE details & history

TLE from 18 hours ago
0 SCOUT X-4 DEB
1 02986U 64026E   24355.72967817  .00000407  00000-0  23924-3 0  9993
2 02986  90.4758 163.6094 0047698 150.4417 209.9478 14.06188168 98082
Epoch: 2024-12-20T17:30Z
Definitive object data (Epoch: 2024-12-20T17:30:44.193Z)
Latitude-0°
Longitude171.13426°
Altitude905.493 km
Speed7.384 km/s
True Right ascension10h 54m 26s
True Declination0° 00' 00"
Sunlit
Object was in daylight at TLE epoch
Visualization TLE readout
Latitude-81.30043°
Longitude-11.92032°
Altitude914.306 km
Speed7.387 km/s
Apparent Right ascension22h 49m 34s
Apparent Declination-61° 55' 39"
Sunlit
Object is in daylight
Visualization observer readout
Local Sidereal Time10:51:13
Azimuth179.479° S
Elevation-67.987°
Doppler factor1
Orbital elements
Apogee altitude903.983 km
Perigee altitude834.845 km
Semi-major axis7,247.551 km
Eccentricity0.0047698
Inclination90.4758°
RAAN163.6094°
Arg. of periapsis150.4417°
True anomaly209.67635°
Mean anomaly209.9478°
Eccentric anomaly209.81193°
Mean motion3.51768 °/min
BSTAR0.00023924
Orbital period102.34 mins
Loading maneuver chart data...
Loading historical data...
Loading historical data...
Loading historical data...
Loading historical data...
Loading historical data...
Loading historical data...
Loading historical data...

SCOUT X-4 DEB Visibility forecast

Observer location: undefined°, undefined

Span
Click to sort rows by Start time (UTC) header in descending order
Start Az.
Max El. time (UTC)
Max El. Az.
Max El.
End time (UTC)
End Az.
10 mins2024-12-21 12:24:31.781Z204.835° SW2024-12-21 12:29:31.781Z279.558° WNW33.548°2024-12-21 12:34:31.781Z342.378° N
9 mins2024-12-21 23:08:31.781Z24.805° NE2024-12-21 23:12:31.781Z87.964° E31.972°2024-12-21 23:17:31.781Z155.274° SSE
7 mins2024-12-22 00:51:31.781Z325.273° NNW2024-12-22 00:54:31.781Z282.298° WNW22.798°2024-12-22 00:58:31.781Z232.517° WSW
7 mins2024-12-22 10:38:31.781Z119.738° SE2024-12-22 10:41:31.781Z82.429° E22.102°2024-12-22 10:45:31.781Z30.138° NE
|